Ithaca, NY

12:21 PM EDT on May 26, 2018 (GMT -0400)
Tompkins County

Weather History for KITH - January, 2013

Change the Weather History Date:

Tuesday, January 8, 2013

  Actual Average Record
Temperature  
Mean Temperature 30 °F -  
Max Temperature 37 °F 30 °F 64 °F (2008)
Min Temperature 21 °F 14 °F -10 °F (1973)
Degree Days  
Heating Degree Days 36    
Moisture  
Dew Point 19 °F    
Average Humidity 68    
Maximum Humidity 85    
Minimum Humidity 47    
Precipitation  
Precipitation 0.00 in - - ()
Sea Level Pressure  
Sea Level Pressure 30.32 in    
Wind  
Wind Speed 6 mph (SE)    
Max Wind Speed 10 mph    
Max Gust Speed -    
Visibility 10 miles    
Events      
Averages and records for this station are not official NWS values.
T = Trace of Precipitation, MM = Missing Value Source: NWS Daily Summary

Daily Weather History Graph

Daily Weather History Graph

Search for Another Location

Airport or City:

Astronomy

Jan. 08, 2013 Rise Set
Actual Time 7:35 AM EST 4:50 PM EST
Civil Twilight 7:03 AM EST 5:22 PM EST
Nautical Twilight 6:28 AM EST 5:57 PM EST
Astronomical Twilight 5:54 AM EST 6:31 PM EST
Moon 4:05 AM EST (1/8) 1:51 PM EST (1/8)
Length of Visible Light 10h 18m
Length of Day
9h 15m
Waning Crescent, 14% of the Moon is Illuminated
Jan 8
Waning Crescent
Jan 11
New
Jan 18
First Quarter
Jan 26
Full
Feb 3
Last Quarter

Hourly Weather History & Observations

Time (EST) Temp. Windchill Dew Point Humidity Pressure Visibility Wind Dir Wind Speed Gust Speed Precip Events Conditions
12:56 AM 25.2 °F 17.3 °F 19.0 °F 78% 30.29 in 10.0 mi SSE 6.9 mph - N/A   Clear
1:56 AM 25.2 °F 15.7 °F 19.0 °F 78% 30.28 in 10.0 mi SSE 9.2 mph - N/A   Clear
2:56 AM 25.2 °F 15.1 °F 19.0 °F 78% 30.27 in 10.0 mi SSE 10.4 mph - N/A   Clear
3:56 AM 25.2 °F 17.3 °F 19.0 °F 78% 30.27 in 10.0 mi South 6.9 mph - N/A   Clear
4:56 AM 26.1 °F 16.2 °F 19.0 °F 75% 30.27 in 10.0 mi South 10.4 mph - N/A   Clear
5:56 AM 27.1 °F 18.9 °F 19.0 °F 72% 30.28 in 10.0 mi South 8.1 mph - N/A   Clear
6:15 AM 26.6 °F - 19.4 °F 74% 30.24 in 10.0 mi Calm Calm - N/A   Clear
6:56 AM 26.1 °F 18.4 °F 18.1 °F 72% 30.31 in 10.0 mi SW 6.9 mph - N/A   Clear
7:56 AM 22.1 °F 15.9 °F 17.1 °F 81% 30.32 in 10.0 mi ESE 4.6 mph - N/A   Clear
8:56 AM 30.0 °F 24.1 °F 19.0 °F 64% 30.32 in 10.0 mi SSW 5.8 mph - N/A   Clear
9:56 AM 32.9 °F 25.9 °F 20.1 °F 59% 30.33 in 10.0 mi SSW 8.1 mph - N/A   Clear
10:56 AM 34.9 °F 32.0 °F 20.1 °F 55% 30.32 in 10.0 mi SW 3.5 mph - N/A   Clear
11:56 AM 36.0 °F - 21.0 °F 55% 30.32 in 10.0 mi Calm Calm - N/A   Clear
12:56 PM 36.0 °F - 19.0 °F 50% 30.32 in 10.0 mi Calm Calm - N/A   Scattered Clouds
1:56 PM 37.9 °F - 19.0 °F 47% 30.32 in 10.0 mi Calm Calm - N/A   Partly Cloudy
1:57 PM 37.4 °F - 19.4 °F 48% 30.27 in 10.0 mi Calm Calm - N/A   Partly Cloudy
2:56 PM 37.9 °F - 20.1 °F 49% 30.32 in 10.0 mi Calm Calm - N/A   Clear
3:56 PM 37.9 °F - 19.0 °F 47% 30.34 in 10.0 mi Calm Calm - N/A   Partly Cloudy
4:56 PM 32.9 °F 29.8 °F 20.1 °F 59% 30.34 in 10.0 mi ENE 3.5 mph - N/A   Clear
5:56 PM 29.1 °F 25.4 °F 21.0 °F 72% 30.36 in 10.0 mi ENE 3.5 mph - N/A   Clear
6:56 PM 28.0 °F 22.8 °F 20.1 °F 72% 30.37 in 10.0 mi East 4.6 mph - N/A   Clear
7:56 PM 28.0 °F 21.7 °F 20.1 °F 72% 30.37 in 10.0 mi ENE 5.8 mph - N/A   Clear
8:56 PM 25.2 °F 19.5 °F 19.0 °F 78% 30.37 in 10.0 mi East 4.6 mph - N/A   Clear
9:56 PM 24.1 °F 17.0 °F 19.0 °F 81% 30.36 in 10.0 mi East 5.8 mph - N/A   Clear
10:56 PM 25.2 °F 18.3 °F 19.0 °F 78% 30.37 in 10.0 mi East 5.8 mph - N/A   Clear
11:56 PM 21.0 °F 14.6 °F 17.1 °F 85% 30.37 in 10.0 mi East 4.6 mph - N/A   Clear